Millbury, Ohio, United States (43447)
Lat: 41.57N, Lon: 83.42W
Wx Zone: OHZ006
Local Info
Past Weather Observations for Today

NOTE: This archive is for the closest National Weather Service station to Millbury. Information may differ from the station used for current weather conditions.

Click here for Long-term Archive

Time Weather Temperature Dewpoint Humidity Pressure Winds Precip Visibility
19:53
Overcast
36°F / 2°C 27°F / -3°C 70% 29.62 in
(1003 mb)
W 10.4 mph
(W 17 kph)
- 10SM
18:53
Overcast
37°F / 3°C 28°F / -2°C 70% 29.62 in
(1003 mb)
W 12.7 mph
(W 20 kph)
- 10SM
17:53
Overcast
37°F / 3°C 30°F / -1°C 75% 29.62 in
(1003 mb)
W 15 mph
(W 24 kph)
0.01 in
(0.25 mm)
9SM
17:33
Overcast
37°F / 3°C 30°F / -1°C 75% 29.62 in
(1003 mb)
W 15 mph
(W 24 kph)
0.01 in
(0.25 mm)
9SM
17:24
Overcast
Light Rain
37°F / 3°C 30°F / -1°C 75% 29.62 in
(1003 mb)
W 12.7 mph
(W 20 kph)
0.01 in
(0.25 mm)
4SM
16:53
Overcast
41°F / 5°C 27°F / -3°C 57% 29.59 in
(1002 mb)
W 13.8 mph
(W 22 kph)
- 10SM
15:53
Overcast
43°F / 6°C 27°F / -3°C 53% 29.59 in
(1002 mb)
WNW 8.1 mph
(WNW 13 kph)
- 10SM
14:53
Mostly Cloudy
43°F / 6°C 27°F / -3°C 53% 29.56 in
(1001 mb)
W 4.6 mph
(W 7 kph)
- 10SM
13:53
Partly Cloudy
43°F / 6°C 27°F / -3°C 53% 29.59 in
(1002 mb)
NW 6.9 mph
(NW 11 kph)
- 10SM
12:53
Mostly Cloudy
41°F / 5°C 28°F / -2°C 61% 29.59 in
(1002 mb)
NW 8.1 mph
(NW 13 kph)
- 10SM
11:53
Mostly Cloudy
39°F / 4°C 28°F / -2°C 65% 29.62 in
(1003 mb)
NW 8.1 mph
(NW 13 kph)
- 10SM
10:53
Overcast
37°F / 3°C 28°F / -2°C 70% 29.62 in
(1003 mb)
WNW 6.9 mph
(WNW 11 kph)
- 10SM
09:53
Overcast
37°F / 3°C 30°F / -1°C 75% 29.62 in
(1003 mb)
W 9.2 mph
(W 15 kph)
- 10SM
08:53
Overcast
36°F / 2°C 30°F / -1°C 81% 29.65 in
(1004 mb)
SSW 6.9 mph
(SSW 11 kph)
- 9SM
07:53
Overcast
34°F / 1°C 30°F / -1°C 87% 29.65 in
(1004 mb)
SSW 5.8 mph
(SSW 9 kph)
- 8SM
06:53
Partly Cloudy
34°F / 1°C 28°F / -2°C 81% 29.62 in
(1003 mb)
SW 4.6 mph
(SW 7 kph)
- 9SM
05:53
Mostly Cloudy
36°F / 2°C 30°F / -1°C 81% 29.65 in
(1004 mb)
SW 5.8 mph
(SW 9 kph)
- 10SM
04:53
Overcast
36°F / 2°C 30°F / -1°C 81% 29.65 in
(1004 mb)
S 3.5 mph
(S 6 kph)
- 10SM
03:53
Overcast
37°F / 3°C 32°F / 0°C 81% 29.65 in
(1004 mb)
SSW 5.8 mph
(SSW 9 kph)
- 10SM
02:53
Overcast
39°F / 4°C 32°F / 0°C 75% 29.68 in
(1005 mb)
SW 5.8 mph
(SW 9 kph)
- 10SM
01:53
Overcast
39°F / 4°C 32°F / 0°C 75% 29.68 in
(1005 mb)
SW 5.8 mph
(SW 9 kph)
- 10SM
00:53
Partly Cloudy
41°F / 5°C 32°F / 0°C 70% 29.71 in
(1006 mb)
SW 6.9 mph
(SW 11 kph)
- 10SM
Time Weather Temperature Dewpoint Humidity Pressure Winds Precip Visibility


Weather for websites

WeatherForYou.com, LLC is not responsible for any damages or problems caused by this service. Current weather conditions are obtained from the closest station including government and personal stations which may have varying degrees of accuracy. Weather forecasts are derived from the NOAA NDFD. Like all things, this site belongs to Jesus Christ... He just trusts us to maintain it. If you have any questions or comments email webmaster@weatherforyou.com

Copyright © 2016, WeatherForYou.com LLC. All rights reserved.